Tracking 32932 objects as of 14-Jan-2026
HD Live streaming from Space Station
objects crossing your sky now

STARLINK-5523

Track STARLINK-5523 now!
10-day predictions
STARLINK-5523 is classified as:


NORAD ID: 56470
Int'l Code: 2023-064Y
Perigee: 577.1 km
Apogee: 581.2 km
Inclination: 70.0 °
Period: 96.1 minutes
Semi major axis: 6950 km
RCS: Unknown
Launch date: May 10, 2023
Source: United States (US)
Launch site: AIR FORCE WESTERN TEST RANGE (AFWTR)
Your satellite tracking list
Your tracking list is empty




NASA's NSSDC Master Catalog

Two Line Element Set (TLE):
1 56470U 23064Y   26014.13363327 -.00002850  00000-0 -23108-3 0  9992
2 56470  69.9990 262.1578 0002898 271.9290  88.1537 14.98346947147564
Source of the keplerian elements: AFSPC